When you browse on this site, cookies collect data to enhance your experience and personalize the content and advertising you see.
Visit our Privacy Policy to learn more. By continuing to use the site, you agree to this use of cookies and data.
  • In Sweden
  • List of Countries
  • For 7 days
  • Water Temperature
  • Weather Map
  • Weather Widgets
  • user-avatar
    Login

    Hourly Weather Matyushi

    Today, 20 September, Friday

    Time Temperature Precipitation Wind Pressure Humidity
    00:00 +4°C° 0 mm 1 mps 751 mmHg 91%
    01:00 +4°C° 0 mm 1 mps 751 mmHg 91%
    02:00 +3°C° 0 mm 1 mps 752 mmHg 85%
    03:00 +3°C° 0 mm 1 mps 752 mmHg 85%
    04:00 +3°C° 0 mm 1 mps 752 mmHg 86%
    05:00 +4°C° 0 mm 1 mps 752 mmHg 86%
    06:00 +3°C° 0 mm 2 mps 752 mmHg 86%
    07:00 +4°C° 0 mm 2 mps 752 mmHg 85%
    08:00 +4°C° 0 mm 3 mps 752 mmHg 84%
    09:00 +5°C° 0.2 mm 3 mps 753 mmHg 80%
    10:00 +7°C° 0.2 mm 3 mps 753 mmHg 76%
    11:00 +7°C° 0.2 mm 4 mps 753 mmHg 72%
    12:00 +8°C° 0.1 mm 4 mps 753 mmHg 66%
    13:00 +8°C° 0.1 mm 4 mps 753 mmHg 61%
    14:00 +10°C° 0.1 mm 4 mps 753 mmHg 56%
    15:00 +9°C° 0 mm 3 mps 753 mmHg 58%
    16:00 +9°C° 0 mm 3 mps 753 mmHg 60%
    17:00 +8°C° 0 mm 2 mps 753 mmHg 63%
    18:00 +7°C° 0 mm 2 mps 754 mmHg 67%
    19:00 +6°C° 0 mm 1 mps 754 mmHg 72%
    20:00 +4°C° 0 mm 1 mps 754 mmHg 76%
    21:00 +4°C° 0 mm 1 mps 754 mmHg 77%
    22:00 +4°C° 0 mm 1 mps 754 mmHg 77%
    23:00 +3°C° 0 mm 2 mps 754 mmHg 78%

    Tomorrow, 21 September, Saturday

    Time Temperature Precipitation Wind Pressure Humidity
    00:00 +3°C° 0 mm 2 mps 754 mmHg 81%
    01:00 +4°C° 0 mm 2 mps 754 mmHg 84%
    02:00 +4°C° 0 mm 2 mps 754 mmHg 87%
    03:00 +4°C° 0 mm 2 mps 753 mmHg 88%
    04:00 +4°C° 0 mm 2 mps 753 mmHg 88%
    05:00 +4°C° 0 mm 2 mps 752 mmHg 88%
    06:00 +4°C° 0 mm 3 mps 752 mmHg 86%
    07:00 +5°C° 0 mm 3 mps 752 mmHg 83%
    08:00 +6°C° 0 mm 4 mps 751 mmHg 80%
    09:00 +6°C° 0 mm 4 mps 751 mmHg 81%
    10:00 +6°C° 0 mm 4 mps 751 mmHg 81%
    11:00 +7°C° 0 mm 4 mps 750 mmHg 81%
    12:00 +6°C° 0.4 mm 4 mps 750 mmHg 86%
    13:00 +7°C° 0.4 mm 3 mps 749 mmHg 91%
    14:00 +7°C° 0.4 mm 3 mps 749 mmHg 95%
    15:00 +7°C° 0.2 mm 3 mps 748 mmHg 96%
    16:00 +8°C° 0.2 mm 3 mps 748 mmHg 97%
    17:00 +9°C° 0.2 mm 2 mps 748 mmHg 98%
    18:00 +9°C° 0.5 mm 3 mps 747 mmHg 97%
    19:00 +10°C° 0.5 mm 4 mps 747 mmHg 96%
    20:00 +11°C° 0.5 mm 4 mps 747 mmHg 95%
    21:00 +10°C° 0.4 mm 5 mps 746 mmHg 95%
    22:00 +10°C° 0.4 mm 5 mps 746 mmHg 94%
    23:00 +10°C° 0.4 mm 5 mps 746 mmHg 94%

    Day after tomorrow, 22 September, Sunday

    Time Temperature Precipitation Wind Pressure Humidity
    00:00 +10°C° 0.6 mm 5 mps 746 mmHg 93%
    01:00 +10°C° 0.6 mm 5 mps 746 mmHg 93%
    02:00 +9°C° 0.6 mm 5 mps 746 mmHg 92%
    03:00 +10°C° 0.4 mm 4 mps 746 mmHg 92%
    04:00 +8°C° 0.4 mm 4 mps 746 mmHg 93%
    05:00 +8°C° 0.4 mm 4 mps 746 mmHg 93%
    06:00 +8°C° 0.1 mm 4 mps 747 mmHg 92%
    07:00 +8°C° 0.1 mm 4 mps 747 mmHg 90%
    08:00 +8°C° 0.1 mm 4 mps 747 mmHg 88%
    09:00 +8°C° 0.1 mm 5 mps 747 mmHg 83%
    10:00 +8°C° 0.1 mm 5 mps 748 mmHg 78%
    11:00 +9°C° 0.1 mm 5 mps 748 mmHg 73%
    12:00 +9°C° 0.1 mm 6 mps 749 mmHg 66%
    13:00 +9°C° 0.1 mm 6 mps 749 mmHg 60%
    14:00 +9°C° 0.1 mm 7 mps 750 mmHg 54%
    15:00 +8°C° 0 mm 6 mps 750 mmHg 57%
    16:00 +7°C° 0 mm 5 mps 751 mmHg 61%
    17:00 +7°C° 0 mm 4 mps 751 mmHg 64%
    18:00 +5°C° 0 mm 4 mps 752 mmHg 69%
    19:00 +4°C° 0 mm 3 mps 753 mmHg 75%
    20:00 +3°C° 0 mm 3 mps 754 mmHg 80%
    21:00 +3°C° 0 mm 2 mps 754 mmHg 83%
    22:00 +3°C° 0 mm 2 mps 754 mmHg 86%
    23:00 +2°C° 0 mm 2 mps 755 mmHg 89%

    23 September, Monday

    Time Temperature Precipitation Wind Pressure Humidity
    00:00 +2°C° 0 mm 2 mps 755 mmHg 91%
    01:00 +2°C° 0 mm 1 mps 756 mmHg 92%
    02:00 +2°C° 0 mm 1 mps 756 mmHg 94%
    03:00 +2°C° 0 mm 1 mps 756 mmHg 94%
    04:00 +1°C° 0 mm 1 mps 757 mmHg 95%
    05:00 +1°C° 0 mm 1 mps 757 mmHg 96%
    06:00 +2°C° 0 mm 1 mps 757 mmHg 91%
    07:00 +3°C° 0 mm 1 mps 757 mmHg 85%
    08:00 +5°C° 0 mm 1 mps 757 mmHg 80%
    09:00 +6°C° 0 mm 1 mps 757 mmHg 74%
    10:00 +8°C° 0 mm 1 mps 757 mmHg 67%
    11:00 +9°C° 0 mm 1 mps 757 mmHg 60%
    12:00 +8°C° 0 mm 2 mps 757 mmHg 59%
    13:00 +8°C° 0 mm 2 mps 757 mmHg 58%
    14:00 +8°C° 0 mm 2 mps 756 mmHg 57%
    15:00 +8°C° 0 mm 2 mps 756 mmHg 60%
    16:00 +8°C° 0 mm 1 mps 756 mmHg 63%
    17:00 +8°C° 0 mm 1 mps 756 mmHg 65%
    18:00 +7°C° 0 mm 1 mps 756 mmHg 69%
    19:00 +6°C° 0 mm 1 mps 756 mmHg 73%
    20:00 +4°C° 0 mm 1 mps 756 mmHg 77%
    21:00 +4°C° 0 mm 1 mps 756 mmHg 81%
    22:00 +3°C° 0 mm 1 mps 756 mmHg 84%
    23:00 +2°C° 0 mm 1 mps 756 mmHg 87%

    24 September, Tuesday

    Time Temperature Precipitation Wind Pressure Humidity
    00:00 +2°C° 0 mm 1 mps 756 mmHg 89%
    01:00 +1°C° 0 mm 0 mps 757 mmHg 90%
    02:00 0°C° 0 mm 0 mps 757 mmHg 92%
    03:00 0°C° 0 mm 0 mps 757 mmHg 93%
    04:00 +1°C° 0 mm 1 mps 757 mmHg 93%
    05:00 +1°C° 0 mm 1 mps 756 mmHg 94%
    06:00 +2°C° 0 mm 1 mps 756 mmHg 88%
    07:00 +3°C° 0 mm 1 mps 756 mmHg 83%
    08:00 +5°C° 0 mm 1 mps 756 mmHg 77%
    09:00 +6°C° 0 mm 1 mps 756 mmHg 70%
    10:00 +8°C° 0 mm 1 mps 756 mmHg 62%
    11:00 +10°C° 0 mm 1 mps 756 mmHg 54%
    12:00 +10°C° 0 mm 1 mps 756 mmHg 53%
    13:00 +10°C° 0 mm 1 mps 756 mmHg 51%
    14:00 +11°C° 0 mm 1 mps 755 mmHg 50%
    15:00 +10°C° 0 mm 1 mps 755 mmHg 55%
    16:00 +9°C° 0 mm 1 mps 755 mmHg 59%
    17:00 +8°C° 0 mm 1 mps 755 mmHg 64%
    18:00 +7°C° 0 mm 1 mps 755 mmHg 67%
    19:00 +5°C° 0 mm 0 mps 755 mmHg 70%
    20:00 +4°C° 0 mm 0 mps 755 mmHg 73%
    21:00 +4°C° 0 mm 0 mps 755 mmHg 76%
    22:00 +3°C° 0 mm 0 mps 755 mmHg 78%
    23:00 +3°C° 0 mm 0 mps 755 mmHg 80%

    25 September, Wednesday

    Time Temperature Precipitation Wind Pressure Humidity
    00:00 +2°C° 0 mm 0 mps 755 mmHg 82%
    01:00 +3°C° 0 mm 1 mps 755 mmHg 84%
    02:00 +3°C° 0 mm 1 mps 755 mmHg 86%
    03:00 +2°C° 0 mm 1 mps 755 mmHg 87%
    04:00 +2°C° 0 mm 1 mps 755 mmHg 89%
    05:00 +2°C° 0 mm 1 mps 755 mmHg 90%
    06:00 +2°C° 0 mm 0 mps 755 mmHg 85%
    07:00 +3°C° 0 mm 0 mps 755 mmHg 80%
    08:00 +4°C° 0 mm 0 mps 756 mmHg 75%
    09:00 +6°C° 0 mm 1 mps 756 mmHg 68%
    10:00 +8°C° 0 mm 1 mps 756 mmHg 60%
    11:00 +9°C° 0 mm 1 mps 756 mmHg 53%
    12:00 +9°C° 0 mm 1 mps 756 mmHg 51%
    13:00 +10°C° 0 mm 1 mps 756 mmHg 50%
    14:00 +10°C° 0 mm 1 mps 756 mmHg 48%
    15:00 +9°C° 0 mm 1 mps 756 mmHg 53%
    16:00 +8°C° 0 mm 1 mps 756 mmHg 58%
    17:00 +8°C° 0 mm 1 mps 756 mmHg 63%
    18:00 +6°C° 0 mm 1 mps 756 mmHg 68%
    19:00 +5°C° 0 mm 1 mps 756 mmHg 73%
    20:00 +3°C° 0 mm 1 mps 756 mmHg 77%
    21:00 +3°C° 0 mm 1 mps 756 mmHg 79%
    22:00 +2°C° 0 mm 1 mps 757 mmHg 81%
    23:00 +2°C° 0 mm 1 mps 757 mmHg 83%
    Show more